N1IJV-10 Weather Reports


time (UTC)temp
F
wind
direction
speed
knots
gust
knots
rain 1hr
in
rain 24hr
in
rain mn
in
humidity
%
barometer
mb
20260906082734 67 147 0.0 0.0 0.00 0.00 0.00 99 1014.2
20260906082229 67 147 0.0 0.0 0.00 0.00 0.00 99 1014.1
20260906081725 68 172 0.0 0.0 0.00 0.00 0.00 99 1014.2
20260906081220 68 147 0.0 0.0 0.00 0.00 0.00 99 1014.3
20260906080716 68 147 0.0 0.0 0.00 0.00 0.00 99 1014.1
20260906080212 68 149 0.0 0.0 0.00 0.00 0.00 99 1014.2
20260906075706 68 147 0.0 0.0 0.00 0.00 0.00 99 1014.3
20260906075201 68 147 0.0 0.0 0.00 0.00 0.00 99 1014.4
20260906074656 69 147 0.0 0.0 0.00 0.00 0.00 99 1014.2
20260906074155 69 147 0.0 0.0 0.00 0.00 0.00 99 1014.5
20260906073650 69 148 0.0 0.0 0.00 0.00 0.00 99 1014.3
20260906073145 69 148 0.0 0.0 0.00 0.00 0.00 98 1014.4
20260906072641 69 147 0.0 0.0 0.00 0.00 0.00 98 1014.3
20260906072136 69 147 0.0 0.0 0.00 0.00 0.00 98 1014.5
20260906071633 69 147 0.0 0.0 0.00 0.00 0.00 98 1014.4
20260906071132 69 147 0.0 0.0 0.00 0.00 0.00 98 1014.5
20260906070629 69 147 0.0 0.0 0.00 0.00 0.00 98 1014.6
20260906070125 69 147 0.0 0.0 0.00 0.00 0.00 98 1014.4
20260906065624 69 152 0.0 0.0 0.00 0.00 0.00 98 1014.5
20260906065120 69 149 0.0 0.0 0.00 0.00 0.00 97 1014.8
20260906064615 69 147 0.0 0.0 0.00 0.00 0.00 97 1014.5
20260906064110 69 147 0.0 0.0 0.00 0.00 0.00 97 1014.4
20260906063605 69 146 0.0 0.0 0.00 0.00 0.00 96 1014.3
20260906063101 70 147 0.0 0.0 0.00 0.00 0.00 96 1014.3
20260906062556 70 147 0.0 0.0 0.00 0.00 0.00 95 1014.3
20260906062055 70 150 0.0 0.0 0.00 0.00 0.00 95 1014.3
20260906061552 70 146 0.0 0.0 0.00 0.00 0.00 95 1014.4
20260906061051 71 148 0.0 0.0 0.00 0.00 0.00 94 1014.5
20260906060548 71 147 0.0 0.9 0.00 0.00 0.00 94 1014.7
20260906060044 71 147 0.9 0.9 0.00 0.00 0.00 94 1014.4
20260906055540 71 149 0.9 0.9 0.00 0.00 0.00 94 1014.3
20260906055035 71 147 0.0 0.9 0.00 0.00 0.00 94 1014.3
20260906054530 71 147 0.9 1.7 0.00 0.00 0.00 93 1014.2
20260906054025 71 147 0.9 0.9 0.00 0.00 0.00 93 1014.3
20260906053522 71 147 0.0 0.9 0.00 0.00 0.00 93 1014.0
20260906053017 71 147 0.0 2.6 0.00 0.00 0.00 93 1014.2
20260906052513 71 147 0.0 1.7 0.00 0.00 0.00 93 1014.2
20260906052010 72 147 0.0 0.9 0.00 0.00 0.00 92 1014.0
20260906051505 72 140 0.9 0.9 0.00 0.00 0.00 93 1014.0
20260906051000 71 148 0.0 1.7 0.00 0.00 0.00 93 1014.1
20260906050500 71 147 1.7 1.7 0.00 0.00 0.00 93 1014.2
20260906045954 71 147 0.0 1.7 0.00 0.01 0.01 93 1013.9
20260906045453 72 150 1.7 2.6 0.00 0.01 0.01 93 1014.0
20260906044949 72 148 0.9 1.7 0.00 0.01 0.01 93 1013.9
20260906044444 72 149 0.9 0.9 0.00 0.01 0.01 92 1013.9
20260906043940 72 147 0.9 1.7 0.00 0.01 0.01 92 1013.7
20260906043435 72 147 0.9 1.7 0.00 0.01 0.01 92 1013.9
20260906042931 72 150 0.9 0.9 0.00 0.01 0.01 92 1013.7
20260906042430 72 149 0.0 1.7 0.00 0.01 0.01 92 1013.6
20260906041925 72 150 0.9 1.7 0.00 0.01 0.01 92 1013.8
20260906041421 72 147 0.0 0.9 0.00 0.01 0.01 92 1013.7
20260906040920 72 149 0.0 1.7 0.00 0.01 0.01 92 1013.7
20260906040416 72 145 0.0 1.7 0.00 0.01 0.01 92 1013.3
20260906035911 72 148 0.9 0.9 0.00 0.01 0.01 92 1013.5
20260906035406 72 148 0.0 0.9 0.00 0.01 0.01 91 1013.4
20260906034901 72 154 0.9 2.6 0.00 0.01 0.01 91 1013.4
20260906034356 72 148 0.9 1.7 0.00 0.01 0.01 91 1013.4
20260906033852 72 147 1.7 2.6 0.00 0.01 0.01 91 1013.3
20260906033351 72 147 0.9 2.6 0.00 0.01 0.01 90 1013.3
20260906032848 72 140 6.1 7.0 0.00 0.01 0.01 90 1013.3
20260906032343 72 145 1.7 4.3 0.00 0.01 0.01 90 1013.1
20260906031838 72 153 2.6 4.3 0.00 0.01 0.01 89 1013.1
20260906031333 73 149 0.9 1.7 0.00 0.01 0.01 89 1013.2
20260906030833 73 151 0.0 1.7 0.00 0.01 0.01 89 1013.3
20260906030329 73 147 1.7 2.6 0.00 0.01 0.01 89 1013.2
20260906025823 73 149 2.6 2.6 0.00 0.01 0.01 89 1013.2
20260906025317 73 152 2.6 7.0 0.00 0.01 0.01 89 1013.0
20260906024816 73 147 0.9 6.1 0.00 0.01 0.01 89 1013.4
20260906024315 73 145 3.5 6.1 0.00 0.01 0.01 89 1013.3
20260906023811 73 151 0.9 5.2 0.00 0.01 0.01 89 1013.3
20260906023306 73 143 1.7 5.2 0.00 0.01 0.01 89 1013.4
20260906022802 73 149 3.5 4.3 0.00 0.01 0.01 89 1013.4
20260906022257 73 186 2.6 4.3 0.00 0.01 0.01 89 1013.1
20260906021753 73 133 2.6 4.3 0.00 0.01 0.01 89 1013.2
20260906021252 73 149 1.7 1.7 0.00 0.01 0.01 89 1013.2
20260906020747 73 152 0.9 5.2 0.00 0.01 0.01 89 1012.8
20260906020247 73 142 1.7 6.1 0.00 0.01 0.01 89 1013.0
20260906015741 73 150 4.3 6.1 0.00 0.01 0.01 89 1013.3
20260906015239 72 141 1.7 2.6 0.00 0.01 0.01 90 1013.3
20260906014734 73 147 1.7 2.6 0.00 0.01 0.01 91 1013.5
20260906014230 73 152 0.9 2.6 0.00 0.01 0.01 91 1013.1
20260906013726 73 145 0.9 2.6 0.00 0.01 0.01 91 1013.2
20260906013226 73 135 2.6 5.2 0.00 0.01 0.01 90 1013.2
20260906012721 73 149 2.6 4.3 0.00 0.01 0.01 90 1013.6
20260906012216 73 150 1.7 7.0 0.00 0.01 0.01 89 1013.3
20260906011711 73 147 0.0 1.7 0.00 0.01 0.01 89 1013.1
20260906011206 73 149 1.7 2.6 0.00 0.01 0.01 89 1013.3
20260906010701 73 148 1.7 4.3 0.00 0.01 0.01 88 1013.1
20260906010158 73 148 4.3 7.0 0.00 0.01 0.01 88 1013.2
20260906005657 73 145 0.9 4.3 0.00 0.01 0.01 88 1013.0
20260906005156 73 147 0.9 2.6 0.00 0.01 0.01 89 1013.2
20260906004655 73 149 0.9 4.3 0.00 0.01 0.01 89 1013.2
20260906004151 73 133 2.6 2.6 0.00 0.01 0.01 89 1013.2
20260906003646 73 149 2.6 2.6 0.00 0.01 0.01 90 1013.2
20260906003142 73 147 1.7 2.6 0.00 0.01 0.01 90 1013.1
20260906002636 73 145 2.6 4.3 0.00 0.01 0.01 90 1012.9
20260906002131 73 145 2.6 2.6 0.00 0.01 0.01 90 1012.8
20260906001626 73 145 1.7 7.0 0.00 0.01 0.01 90 1012.8
20260906001126 73 145 2.6 4.3 0.00 0.01 0.01 90 1012.7
20260906000622 73 131 3.5 8.7 0.00 0.01 0.01 89 1012.6
20260906000118 74 144 0.9 2.6 0.00 0.01 0.01 89 1012.4
20260905235616 74 143 2.6 2.6 0.00 0.01 0.01 88 1012.2
20260905235111 75 147 1.7 4.3 0.00 0.01 0.01 87 1012.3
20260905234607 75 145 2.6 4.3 0.00 0.01 0.01 86 1012.4
20260905234102 76 147 2.6 4.3 0.00 0.01 0.01 86 1012.6
20260905233602 76 143 0.9 1.7 0.00 0.01 0.01 85 1012.3
20260905233056 77 141 2.6 7.8 0.00 0.01 0.01 84 1012.1
20260905232552 77 143 4.3 5.2 0.00 0.01 0.01 84 1012.1
20260905232048 77 145 2.6 4.3 0.00 0.01 0.01 84 1012.1
20260905231543 77 147 2.6 6.1 0.00 0.01 0.01 84 1012.3
20260905231039 78 143 2.6 2.6 0.00 0.01 0.01 84 1011.9
20260905230538 78 147 0.9 1.7 0.00 0.01 0.01 84 1011.9
20260905230037 78 143 0.9 1.7 0.00 0.01 0.01 83 1012.1
20260905225531 79 147 0.9 2.6 0.00 0.01 0.01 82 1011.8
20260905225027 80 148 0.9 7.8 0.00 0.01 0.01 81 1011.6
20260905224521 80 149 2.6 6.1 0.00 0.01 0.01 80 1011.5
20260905224021 81 149 2.6 2.6 0.00 0.01 0.01 79 1011.5
20260905223518 81 143 2.6 5.2 0.00 0.01 0.01 78 1011.4
20260905223014 81 147 1.7 4.3 0.00 0.01 0.01 78 1011.5
20260905222514 81 147 0.0 2.6 0.00 0.01 0.01 78 1011.5
20260905222009 82 145 2.6 4.3 0.00 0.01 0.01 76 1011.4
20260905221506 83 148 1.7 2.6 0.00 0.01 0.01 73 1011.3
20260905221001 83 147 1.7 4.3 0.00 0.01 0.01 73 1011.3
20260905220457 83 147 0.9 4.3 0.00 0.01 0.01 74 1011.3
20260905215956 83 137 2.6 4.3 0.00 0.01 0.01 73 1011.6
20260905215452 82 147 0.0 0.9 0.00 0.01 0.01 76 1011.7
20260905214948 82 147 0.9 0.9 0.00 0.01 0.01 77 1011.8
20260905214444 82 150 0.9 2.6 0.00 0.01 0.01 75 1011.6
20260905213944 83 147 0.9 5.2 0.00 0.01 0.01 75 1011.6
20260905213440 83 142 0.9 1.7 0.00 0.01 0.01 75 1011.5
20260905212935 84 150 0.9 2.6 0.00 0.01 0.01 74 1011.4
20260905212430 84 147 0.0 4.3 0.00 0.01 0.01 74 1011.4
20260905211929 85 147 0.0 1.7 0.00 0.01 0.01 73 1011.5
20260905211425 85 147 0.0 0.9 0.00 0.01 0.01 72 1011.5
20260905210921 85 147 0.9 1.7 0.00 0.01 0.01 74 1011.5
20260905210421 84 147 0.9 0.9 0.00 0.01 0.01 73 1011.7
20260905205920 84 147 0.0 0.0 0.00 0.01 0.01 74 1011.5
20260905205415 84 149 0.9 1.7 0.00 0.01 0.01 74 1011.8
20260905204914 83 148 1.7 2.6 0.00 0.01 0.01 76 1011.7
20260905204410 83 147 0.0 0.9 0.00 0.01 0.01 78 1011.5
20260905203909 81 147 0.9 2.6 0.00 0.01 0.01 79 1011.9
20260905203405 81 147 0.0 1.7 0.00 0.01 0.01 81 1011.9
20260905202900 81 160 1.7 4.3 0.00 0.01 0.01 80 1011.8
20260905202355 81 149 0.9 4.3 0.00 0.01 0.01 80 1012.1
20260905201850 80 146 0.9 1.7 0.00 0.01 0.01 83 1011.8
20260905201346 80 141 0.9 1.7 0.00 0.01 0.01 82 1011.7
20260905200840 80 147 0.0 2.6 0.00 0.01 0.01 82 1011.9
20260905200336 79 147 0.9 1.7 0.00 0.01 0.01 82 1011.9
20260905195834 79 142 1.7 2.6 0.00 0.01 0.01 83 1011.9
20260905195329 79 147 0.9 2.6 0.00 0.01 0.01 83 1011.8
20260905194825 79 145 2.6 4.3 0.00 0.01 0.01 83 1012.1
20260905194325 79 149 1.7 1.7 0.00 0.01 0.01 84 1011.9
20260905193824 79 146 1.7 2.6 0.00 0.01 0.01 83 1011.9
20260905193319 80 129 3.5 5.2 0.00 0.01 0.01 83 1012.2
20260905192815 79 148 0.9 1.7 0.00 0.01 0.01 84 1012.1
20260905192311 80 148 0.9 1.7 0.00 0.01 0.01 83 1012.2
20260905191810 80 146 0.9 1.7 0.00 0.01 0.01 83 1011.9
20260905191308 80 149 0.9 4.3 0.00 0.01 0.01 83 1012.3
20260905190807 80 147 0.9 1.7 0.00 0.01 0.01 82 1012.1
20260905190301 81 148 0.9 2.6 0.00 0.01 0.01 82 1012.2
20260905185800 80 162 0.0 1.7 0.00 0.01 0.01 82 1012.3
20260905185254 81 162 1.7 4.3 0.00 0.01 0.01 81 1011.9
20260905184748 82 160 1.7 4.3 0.00 0.01 0.01 81 1012.2
20260905184247 82 161 2.6 2.6 0.00 0.01 0.01 79 1012.1
20260905183741 83 148 0.0 1.7 0.00 0.01 0.01 78 1012.2
20260905183237 82 149 1.7 2.6 0.00 0.01 0.01 79 1012.4
20260905182736 82 147 0.9 1.7 0.00 0.01 0.01 79 1012.3
20260905182236 83 149 0.9 2.6 0.00 0.01 0.01 78 1012.2
20260905181732 83 145 0.9 1.7 0.00 0.01 0.01 79 1012.3
20260905181231 83 149 1.7 6.1 0.00 0.01 0.01 78 1012.2
20260905180726 83 149 0.0 4.3 0.00 0.01 0.01 79 1012.1
20260905180220 82 145 2.6 4.3 0.00 0.01 0.01 79 1012.1
20260905175715 82 147 0.9 2.6 0.00 0.01 0.01 79 1012.1
20260905175209 83 143 3.5 4.3 0.00 0.01 0.01 78 1012.2
20260905174705 82 147 1.7 2.6 0.00 0.01 0.01 79 1011.9
20260905174201 82 149 2.6 4.3 0.00 0.01 0.01 81 1011.9
20260905173657 84 147 1.7 2.6 0.00 0.01 0.01 78 1011.9
20260905173152 85 147 1.7 2.6 0.00 0.01 0.01 77 1011.9
20260905172651 84 147 0.9 2.6 0.00 0.01 0.01 78 1011.8
20260905172145 84 149 1.7 5.2 0.00 0.01 0.01 77 1012.1
20260905171641 84 138 1.7 4.3 0.00 0.01 0.01 78 1011.8
20260905171137 83 147 0.0 2.6 0.00 0.01 0.01 79 1011.9
20260905170634 83 147 0.9 4.3 0.00 0.01 0.01 79 1011.8
20260905170129 85 147 2.6 4.3 0.00 0.01 0.01 76 1012.1
20260905165623 86 148 1.7 1.7 0.00 0.01 0.01 75 1012.1
20260905165119 85 148 0.9 1.7 0.00 0.01 0.01 77 1011.9
20260905164614 86 150 2.6 2.6 0.00 0.01 0.01 74 1012.2
20260905164113 84 149 0.9 1.7 0.00 0.01 0.01 77 1011.9
20260905163609 83 147 1.7 4.3 0.00 0.01 0.01 78 1012.2
20260905163106 83 168 0.9 4.3 0.00 0.01 0.01 79 1012.4
20260905162602 83 149 0.9 2.6 0.00 0.01 0.01 78 1012.4
20260905162101 83 150 1.7 4.3 0.00 0.01 0.01 79 1011.9
20260905161555 83 149 0.9 1.7 0.00 0.01 0.01 78 1012.2
20260905161053 82 149 0.9 1.7 0.00 0.01 0.01 81 1012.3
20260905160552 82 148 0.9 2.6 0.00 0.01 0.01 81 1012.3
20260905160052 81 147 0.9 1.7 0.00 0.01 0.01 82 1012.2
20260905155552 82 147 1.7 2.6 0.00 0.01 0.01 82 1012.2
20260905155050 82 147 2.6 2.6 0.00 0.01 0.01 82 1012.1
20260905154545 83 140 2.6 2.6 0.00 0.01 0.01 81 1012.2
20260905154041 82 148 0.9 1.7 0.00 0.01 0.01 83 1011.8
20260905153537 80 151 1.7 4.3 0.00 0.01 0.01 84 1012.2
20260905153037 81 151 0.9 4.3 0.00 0.01 0.01 83 1012.1
20260905152531 81 150 0.9 2.6 0.00 0.01 0.01 83 1011.8
20260905152027 81 150 0.9 2.6 0.00 0.01 0.01 83 1011.7
20260905151522 81 150 1.7 7.8 0.00 0.01 0.01 83 1011.8
20260905151017 81 149 1.7 2.6 0.00 0.01 0.01 83 1011.8
20260905150512 80 148 0.0 1.7 0.00 0.01 0.01 86 1011.5
20260905150010 79 149 1.7 2.6 0.00 0.01 0.01 87 1011.7
20260905145509 79 149 2.6 2.6 0.00 0.01 0.01 87 1011.4
20260905145003 79 152 4.3 7.0 0.00 0.01 0.01 86 1011.3
20260905144458 79 156 2.6 4.3 0.00 0.01 0.01 86 1011.6
20260905143957 78 148 0.9 6.1 0.00 0.01 0.01 88 1011.4
20260905143456 78 160 2.6 5.2 0.00 0.01 0.01 88 1011.5
20260905142951 78 148 0.9 2.6 0.00 0.01 0.01 89 1011.3
20260905142450 78 149 0.0 2.6 0.00 0.01 0.01 90 1011.5
20260905141945 77 150 1.7 1.7 0.00 0.01 0.01 91 1011.6
20260905141440 77 149 2.6 2.6 0.00 0.01 0.01 92 1011.4
20260905140936 75 149 0.9 2.6 0.00 0.01 0.01 95 1011.3
20260905140431 75 150 0.0 1.7 0.00 0.01 0.01 96 1011.5
20260905135930 74 109 1.7 2.6 0.00 0.01 0.01 97 1011.5
20260905135426 74 149 1.7 2.6 0.00 0.01 0.01 97 1011.3
20260905134921 74 148 0.9 2.6 0.00 0.01 0.01 97 1011.2
20260905134420 74 147 0.0 0.9 0.00 0.01 0.01 98 1011.4
20260905133915 74 136 0.9 2.6 0.00 0.01 0.01 98 1011.3
20260905133415 74 148 0.0 2.6 0.00 0.01 0.01 98 1011.1
20260905132914 75 147 0.9 1.7 0.00 0.01 0.01 98 1011.5
20260905132410 74 148 0.0 1.7 0.00 0.01 0.01 99 1011.3
20260905131905 74 149 1.7 2.6 0.00 0.01 0.01 99 1011.4
20260905131400 74 150 1.7 2.6 0.00 0.01 0.01 99 1011.6
20260905130855 74 149 1.7 2.6 0.00 0.01 0.01 99 1011.6
20260905130354 74 149 0.9 2.6 0.00 0.01 0.01 99 1011.2
20260905125849 75 149 2.6 2.6 0.00 0.01 0.01 99 1010.8
20260905125344 75 150 0.9 1.7 0.00 0.01 0.01 99 1010.7
20260905124840 75 149 0.0 0.9 0.00 0.01 0.01 99 1010.6
20260905124336 74 150 0.0 0.9 0.00 0.01 0.01 99 1010.6
20260905123836 74 149 0.0 0.9 0.00 0.01 0.01 99 1010.4
20260905123333 74 145 0.9 0.9 0.00 0.01 0.01 99 1010.5
20260905122833 74 149 0.0 1.7 0.00 0.01 0.01 99 1010.6
20260905122332 74 149 0.9 0.9 0.00 0.01 0.01 99 1010.5
20260905121827 74 150 0.0 0.9 0.00 0.01 0.01 99 1010.4
20260905121324 74 150 0.0 0.0 0.00 0.01 0.01 99 1010.7
20260905120822 74 149 0.0 0.0 0.00 0.01 0.01 99 1010.5
20260905120317 74 147 0.0 0.0 0.00 0.01 0.01 99 1010.2
20260905115812 74 149 0.0 0.0 0.00 0.01 0.01 99 1010.4
20260905115312 74 148 0.0 0.0 0.00 0.01 0.01 99 1010.4
20260905114812 74 147 0.0 0.0 0.00 0.01 0.01 99 1010.3
20260905114311 74 151 0.0 0.0 0.00 0.01 0.01 99 1010.2
20260905113810 74 147 0.0 0.0 0.00 0.01 0.01 99 1010.0
20260905113306 74 146 0.0 0.0 0.00 0.01 0.01 99 1010.0
20260905112801 74 186 0.0 0.0 0.00 0.01 0.01 99 1010.0
20260905112256 75 147 0.0 0.0 0.00 0.01 0.01 99 1009.9
20260905111750 75 183 0.0 0.0 0.00 0.01 0.01 99 1009.8
20260905111245 75 148 0.0 0.0 0.00 0.01 0.01 99 1009.8
20260905110744 75 147 0.0 0.9 0.00 0.01 0.01 99 1009.8
20260905110238 75 146 0.0 0.9 0.00 0.01 0.01 99 1009.7
20260905105734 75 148 0.9 0.9 0.00 0.01 0.01 99 1009.7
20260905105233 76 149 0.9 1.7 0.00 0.01 0.01 99 1009.6
20260905104728 75 149 0.0 0.0 0.00 0.01 0.01 99 1009.5
20260905104224 75 147 0.0 0.0 0.00 0.01 0.01 99 1009.5
20260905103719 75 162 0.0 0.0 0.00 0.01 0.01 99 1009.5
20260905103215 75 151 0.0 0.0 0.00 0.01 0.01 99 1009.6
20260905102710 75 149 0.0 0.0 0.00 0.01 0.01 99 1009.7
20260905102207 75 186 0.0 0.0 0.00 0.01 0.01 99 1009.4
20260905101706 75 149 0.0 0.0 0.00 0.01 0.01 99 1009.6
20260905101204 76 149 0.0 0.0 0.00 0.01 0.01 99 1009.4
20260905100701 76 147 0.0 0.0 0.00 0.01 0.01 99 1009.5
20260905100155 76 147 0.0 0.0 0.00 0.01 0.01 99 1009.6
20260905095654 76 147 0.0 0.0 0.00 0.01 0.01 99 1009.5
20260905095149 76 152 0.0 0.0 0.00 0.01 0.01 99 1009.4
20260905094644 76 147 0.0 0.0 0.00 0.01 0.01 99 1009.5
20260905094143 76 147 0.0 0.0 0.00 0.01 0.01 99 1009.5
20260905093638 76 145 0.0 0.0 0.00 0.01 0.01 99 1009.7
20260905093135 76 147 0.0 0.0 0.00 0.01 0.01 99 1009.6
20260905092634 76 151 0.0 0.0 0.00 0.01 0.01 99 1009.7
20260905092130 76 147 0.0 0.0 0.00 0.01 0.01 99 1009.5
20260905091630 76 148 0.0 0.0 0.00 0.01 0.01 99 1009.3
20260905091130 76 147 0.0 0.0 0.00 0.01 0.01 99 1009.5
20260905090625 76 147 0.0 0.0 0.00 0.01 0.01 99 1009.3
20260905090120 76 147 0.0 0.0 0.00 0.01 0.01 99 1009.6
20260905085619 76 186 0.0 0.0 0.00 0.01 0.01 99 1009.4
20260905085114 76 151 0.0 0.0 0.07 0.01 0.01 99 1009.4
20260905084614 76 147 0.0 0.0 0.07 0.01 0.01 99 1009.6
20260905084109 76 147 0.0 0.0 0.00 0.00 0.00 99 1009.6
20260905083603 75 145 0.0 0.0 0.00 0.00 0.00 99 1009.3
20260905083100 75 147 0.0 0.0 0.00 0.00 0.00 99 1009.6